Back to catalog

COSMOS 415

AliveMilitaryLEO
NORAD 5214·PAYLOAD·🇷🇺 Russia

Launched May 7, 1971 from Plesetsk Cosmodrome

Loading…

Next Passes (next 24 hours)

TLE

FreshSource: Space-Track

Epoch: Sep 14, 2026, 14:19 UTC

1 05214U 71041E   26257.59690213  .00000001  00000-0  11433-3 0  9998
2 05214  74.0180 328.4240 0031668 181.4842 178.6118 12.47497691520839

Track COSMOS 415 in real time with AllMySat

Download on the App Store